Regional Weather Roundup
Issued by NWS

Home | Current Version | Previous Version | Graphics & Text | Print | Product List | Glossary On
Versions: 1 2 3 4 5 6 7 8 9 10 11 12 13 14 15 16 17 18 19 20 21 22 23 24 25 26 27 28 29 30 31 32 33 34 35 36 37 38 39 40 41 42 43 44 45 46 47 48 49 50
000
ASUS43 KDTX 010201
RWRMI
MICHIGAN HOURLY REGIONAL WEATHER ROUNDUP
NATIONAL WEATHER SERVICE DETROIT/PONTIAC MI
1000 PM EDT THU JUL 31 2014

NOTE: "FAIR" INDICATES FEW OR NO CLOUDS BELOW 12,000 FEET WITH NO
SIGNIFICANT WEATHER AND/OR OBSTRUCTION TO VISIBILITY.

MIZ047>049-052>055-059>063-066>070-074>076-081>083-010300-
SOUTHEAST LOWER MICHIGAN

CITY           SKY/WX    TMP DP  RH WIND       PRES   REMARKS
ADRIAN         CLEAR     67  59  75 CALM      30.06R
ALMA           MOCLDY    63  60  89 CALM      30.03R
ANN ARBOR      CLEAR     63  58  83 CALM      30.04R
BAD AXE        CLEAR     61  58  91 CALM      30.02R
CARO           PTCLDY    64  62  93 CALM      30.02R
DETROIT CITY   CLEAR     74  58  57 CALM      30.03R
DETROIT        PTCLDY    72  60  66 SW6       30.04R
FLINT          CLEAR     65  57  75 CALM      30.03R
GROSSE ILE     CLEAR     72  63  73 SW5       30.03R
HILLSDALE      CLEAR     61  60  95 CALM      30.07S
HOWELL         CLEAR     67  58  71 CALM      30.04R

CITY           SKY/WX    TMP DP  RH WIND       PRES   REMARKS
JACKSON        CLEAR     66  58  75 CALM      30.05R
LAMBERTVILLE   CLEAR     64  63  94 CALM      30.06R FOG
LANSING        CLEAR     68  59  73 CALM      30.04R
LAPEER         FAIR      60  59  96 CALM      30.04R FOG
MASON          CLEAR     63  59  88 CALM      30.05R
MONROE         CLEAR     66  61  82 CALM      30.03R
MT. CLEMENS    PTCLDY    65  56  72 CALM      30.02R
PONTIAC        CLEAR     70  59  68 SW5       30.04R
PORT HOPE        N/A     66  56  70 S5        29.99R
PORT HURON     PTCLDY    59  59 100 CALM      30.04R FOG
TRI CITIES     CLEAR     69  60  73 SW5       30.02R
TROY           CLEAR     73  58  60 SW5       30.05R
SAGINAW HB     CLEAR     64  61  88 SW5       30.01S
$$
MIZ043>046-050>051-056>058-064>065-071>073-077>080-010300-
SOUTHWEST LOWER MICHIGAN

CITY           SKY/WX    TMP DP  RH WIND       PRES   REMARKS
BATTLE CREEK   CLEAR     68  58  70 SW3       30.05R
BENTON HARBOR  CLEAR     70  60  70 S6        30.03R
BIG RAPIDS     PTCLDY    65  58  79 SW3       30.01R
COLDWATER      CLEAR     67  61  83 S3        30.05S
FREMONT        FAIR      65  60  85 CALM      30.01R
HOLLAND        CLEAR     69  59  70 CALM      30.03R
GRAND RAPIDS   PTCLDY    69  61  75 S3        30.03R
IONIA          MOCLDY    64  59  86 CALM      30.02S
KALAMAZOO      CLEAR     69  59  70 S3        30.04R
LUDINGTON      CLEAR     69  62  76 S6        30.01R
MARSHALL       CLEAR     66  59  79 CALM      30.04S
MOUNT PLEASANT MOCLDY    68  60  73 SW3       30.01R
MUSKEGON       MOCLDY    69  57  65 S6        30.02R
SOUTH HAVEN    CLEAR     65  64  93 CALM      30.02S
$$
MIZ016>042-010300-
NORTHERN LOWER MICHIGAN

CITY           SKY/WX    TMP DP  RH WIND       PRES   REMARKS
ALPENA         MOCLDY    64  56  75 NE3       29.99R
BEAVER ISLAND  CLEAR     60  59  99 CALM      29.98S
BELLAIRE       PTCLDY    59  55  87 CALM      29.98R
CADILLAC       CLEAR     59  54  84 CALM      30.02R
CHARLEVOIX     MOCLDY    64  61  89 NW6       30.02R
FRANKFORT      CLEAR     66  57  71 CALM      29.99R
GAYLORD        CLEAR     61  54  77 CALM      30.01R
GRAYLING       CLEAR     59  56  91 CALM      30.02R
HARBOR SPRINGS PTCLDY    64  56  74 CALM      29.99R
HOUGHTON LAKE  CLEAR     61  54  77 CALM      30.01R
MANISTEE       CLEAR     66  57  72 CALM      30.01R
OSCODA         PTCLDY    65  58  77 S3        29.98S
PELLSTON       MOCLDY    63  55  75 W3        29.99R
ROGERS CITY    CLEAR     58  57  96 CALM      30.00S
TRAVERSE CITY  CLEAR     67  52  58 SE3       29.97R
$$
MIZ007>008-015-010300-
EASTERN UPPER MICHIGAN

CITY           SKY/WX    TMP DP  RH WIND       PRES   REMARKS
KINROSS        CLEAR     57  54  88 CALM      29.98R
MACKINAC ISLAN MOCLDY    61  59  93 NW5       29.98R
NEWBERRY       PTCLDY    56  49  77 W6        29.97S
S. S. MARIE    PTCLDY    58  50  75 NW3       29.98R
MUNISING         N/A     59  54  83 S6        29.97R
$$
MIZ004>006-011>014-085-010300-
CENTRAL UPPER MICHIGAN

CITY           SKY/WX    TMP DP  RH WIND       PRES   REMARKS
MANISTIQUE     CLEAR     57  56  97 CALM      29.97S FOG
ESCANABA       CLEAR     66  52  59 NE5       29.97R
MENOMINEE      CLEAR     64  57  77 CALM      29.96R
SAWYER-GWINN   CLEAR     63  52  67 CALM      29.99R
$$
MIZ001>003-009>011-084-010300-
WESTERN UPPER MICHIGAN

CITY           SKY/WX    TMP DP  RH WIND       PRES   REMARKS
IRON MOUNTAIN  CLEAR     61  50  67 CALM      29.98R
HOUGHTON       CLEAR     59  51  75 W6        29.95S
COPPER HARBOR    N/A     64  52  64 CALM      29.94R
$$

ABBREVIATIONS USED IN REMARKS
   TC - TEMPERATURE IN CELSIUS
  WCI - WIND CHILL INDEX
   HX - HEAT INDEX
  VSB - VISIBILITY




USA.gov is the U.S. government's official web portal to all federal, state and local government web resources and services.